Oelwein, IA

2:38 AM CST on December 11, 2019 (GMT -0600)
Oelwein Municipal

Weather History for KOLZ - October, 2019

Change the Weather History Date:

Tuesday, October 22, 2019

  Actual Average Record
Temperature  
Mean Temperature 44 °F -  
Max Temperature 50 °F 61 °F 80 °F (1975)
Min Temperature 37 °F 38 °F 14 °F (1976)
Degree Days  
Heating Degree Days 20    
Moisture  
Dew Point 39 °F    
Average Humidity 84    
Maximum Humidity 100    
Minimum Humidity 50    
Precipitation  
Precipitation 0.08 in - - ()
Sea Level Pressure  
Sea Level Pressure 29.58 in    
Wind  
Wind Speed 22 mph (West)    
Max Wind Speed 29 mph    
Max Gust Speed 40 mph    
Visibility 9 miles    
Events      
Averages and records for this station are not official NWS values.
T = Trace of Precipitation, MM = Missing Value Source: NWS Daily Summary

Daily Weather History Graph

Daily Weather History Graph

Search for Another Location

Airport or City:

Astronomy

Oct. 22, 2019 Rise Set
Actual Time 7:29 AM CDT 6:14 PM CDT
Civil Twilight 7:00 AM CDT 6:43 PM CDT
Nautical Twilight 6:27 AM CDT 7:16 PM CDT
Astronomical Twilight 5:54 AM CDT 7:49 PM CDT
Moon 12:28 AM CDT (10/22) 3:34 PM CDT (10/22)
Length of Visible Light 11h 43m
Length of Day
10h 45m
Last Quarter, 37% of the Moon is Illuminated
Oct 22
Last Quarter
Oct 27
New
Nov 4
First Quarter
Nov 12
Full
Nov 19
Last Quarter

Hourly Weather History & Observations

Time (CDT) Temp. Windchill Dew Point Humidity Pressure Visibility Wind Dir Wind Speed Gust Speed Precip Events Conditions
12:15 AM 44.6 °F 35.5 °F 44.6 °F 100% 29.29 in 8.0 mi WSW 25.3 mph 31.1 mph N/A   Overcast
12:35 AM 42.8 °F 34.0 °F 42.8 °F 100% 29.30 in 7.0 mi WSW 20.7 mph 33.4 mph N/A   Overcast
12:55 AM 42.8 °F 34.0 °F 42.8 °F 100% 29.30 in 7.0 mi WSW 20.7 mph 28.8 mph 0.02 in   Overcast
1:15 AM 42.8 °F 33.3 °F 42.8 °F 100% 29.30 in 6.0 mi WSW 24.2 mph 33.4 mph N/A   Overcast
1:35 AM 42.8 °F 34.8 °F 42.8 °F 100% 29.31 in 3.0 mi WSW 17.3 mph 26.5 mph N/A   Overcast
1:55 AM 42.8 °F 32.7 °F 42.8 °F 100% 29.31 in 3.0 mi West 27.6 mph 33.4 mph 0.04 in   Overcast
2:15 AM 42.8 °F 34.0 °F 42.8 °F 100% 29.32 in 4.0 mi West 20.7 mph 31.1 mph N/A   Overcast
2:35 AM 42.8 °F 32.9 °F 42.8 °F 100% 29.33 in 5.0 mi West 26.5 mph 33.4 mph N/A   Overcast
2:55 AM 42.8 °F 33.5 °F 42.8 °F 100% 29.34 in 5.0 mi West 23.0 mph 34.5 mph 0.02 in   Overcast
3:15 AM 42.8 °F 33.3 °F 42.8 °F 100% 29.34 in 8.0 mi West 24.2 mph 33.4 mph N/A   Overcast
3:35 AM 42.8 °F 33.3 °F 42.8 °F 100% 29.35 in 10.0 mi West 24.2 mph 33.4 mph N/A   Overcast
3:55 AM 42.8 °F 33.1 °F 42.8 °F 100% 29.36 in 9.0 mi West 25.3 mph 40.3 mph N/A   Overcast
4:15 AM 42.8 °F 32.9 °F 42.8 °F 100% 29.37 in 9.0 mi West 26.5 mph 35.7 mph N/A   Overcast
4:35 AM 42.8 °F 33.5 °F 42.8 °F 100% 29.39 in 10.0 mi West 23.0 mph 34.5 mph N/A   Overcast
4:55 AM 42.8 °F 32.7 °F 42.8 °F 100% 29.40 in 10.0 mi West 27.6 mph 36.8 mph N/A   Overcast
5:15 AM 42.8 °F 32.9 °F 42.8 °F 100% 29.42 in 7.0 mi West 26.5 mph - N/A   Overcast
5:35 AM 42.8 °F 32.9 °F 42.8 °F 100% 29.44 in 10.0 mi West 26.5 mph 33.4 mph N/A   Overcast
5:55 AM 42.8 °F 33.1 °F 42.8 °F 100% 29.45 in 10.0 mi West 25.3 mph 32.2 mph N/A   Overcast
6:15 AM 42.8 °F 33.3 °F 42.8 °F 100% 29.46 in 10.0 mi West 24.2 mph 34.5 mph N/A   Overcast
6:35 AM 42.8 °F 33.5 °F 42.8 °F 100% 29.47 in 10.0 mi West 23.0 mph 36.8 mph N/A   Overcast
6:55 AM 42.8 °F 33.5 °F 42.8 °F 100% 29.48 in 10.0 mi West 23.0 mph 33.4 mph N/A   Overcast
7:15 AM 42.8 °F 33.8 °F 42.8 °F 100% 29.49 in 10.0 mi West 21.9 mph 29.9 mph N/A   Overcast
7:35 AM 42.8 °F 32.9 °F 42.8 °F 100% 29.50 in 10.0 mi West 26.5 mph 33.4 mph N/A   Overcast
7:55 AM 42.8 °F 32.9 °F 42.8 °F 100% 29.51 in 9.0 mi West 26.5 mph 33.4 mph N/A   Overcast
8:15 AM 42.8 °F 33.5 °F 42.8 °F 100% 29.52 in 10.0 mi West 23.0 mph 31.1 mph N/A   Overcast
8:35 AM 42.8 °F 33.8 °F 42.8 °F 100% 29.54 in 10.0 mi West 21.9 mph 34.5 mph N/A   Overcast
8:55 AM 42.8 °F 33.1 °F 41.0 °F 93% 29.54 in 10.0 mi West 25.3 mph 35.7 mph N/A   Overcast
9:15 AM 42.8 °F 33.1 °F 41.0 °F 93% 29.55 in 10.0 mi West 25.3 mph 35.7 mph N/A   Overcast
9:35 AM 42.8 °F 33.8 °F 41.0 °F 93% 29.57 in 10.0 mi West 21.9 mph 28.8 mph N/A   Overcast
9:55 AM 42.8 °F 33.8 °F 41.0 °F 93% 29.57 in 10.0 mi West 21.9 mph 29.9 mph N/A   Overcast
10:15 AM 42.8 °F 32.7 °F 41.0 °F 93% 29.58 in 10.0 mi West 27.6 mph 33.4 mph N/A   Overcast
10:55 AM 44.6 °F 36.1 °F 41.0 °F 87% 29.59 in 10.0 mi West 21.9 mph 35.7 mph N/A   Overcast
11:15 AM 44.6 °F 35.5 °F 41.0 °F 87% 29.60 in 10.0 mi West 25.3 mph 34.5 mph N/A   Overcast
11:35 AM 44.6 °F 34.9 °F 41.0 °F 87% 29.60 in 10.0 mi West 28.8 mph 34.5 mph N/A   Overcast
11:55 AM 44.6 °F 35.5 °F 41.0 °F 87% 29.62 in 10.0 mi West 25.3 mph 39.1 mph N/A   Overcast
12:35 PM 44.6 °F 35.7 °F 39.2 °F 81% 29.63 in 10.0 mi West 24.2 mph 33.4 mph N/A   Overcast
12:55 PM 44.6 °F 35.1 °F 39.2 °F 81% 29.63 in 10.0 mi West 27.6 mph 36.8 mph N/A   Overcast
1:15 PM 44.6 °F 35.7 °F 39.2 °F 81% 29.64 in 10.0 mi West 24.2 mph 34.5 mph N/A   Overcast
1:35 PM 46.4 °F 37.7 °F 39.2 °F 76% 29.64 in 10.0 mi West 26.5 mph 32.2 mph N/A   Overcast
1:55 PM 46.4 °F 37.9 °F 39.2 °F 76% 29.64 in 10.0 mi West 25.3 mph 32.2 mph N/A   Overcast
2:15 PM 48.2 °F - 39.2 °F 71% 29.64 in 10.0 mi West 25.3 mph 34.5 mph N/A   Overcast
2:35 PM 48.2 °F - 39.2 °F 71% 29.65 in 10.0 mi West 21.9 mph 31.1 mph N/A   Overcast
2:55 PM 48.2 °F - 39.2 °F 71% 29.66 in 10.0 mi West 26.5 mph 34.5 mph N/A   Overcast
3:15 PM 48.2 °F - 39.2 °F 71% 29.67 in 10.0 mi West 23.0 mph - N/A   Overcast
3:35 PM 48.2 °F - 39.2 °F 71% 29.67 in 10.0 mi West 25.3 mph 31.1 mph N/A   Overcast
3:55 PM 48.2 °F - 35.6 °F 62% 29.68 in 10.0 mi West 24.2 mph 33.4 mph N/A   Overcast
4:15 PM 50.0 °F - 35.6 °F 58% 29.69 in 10.0 mi West 19.6 mph 29.9 mph N/A   Overcast
4:35 PM 50.0 °F - 32.0 °F 50% 29.69 in 10.0 mi West 25.3 mph 33.4 mph N/A   Overcast
4:55 PM 50.0 °F - 32.0 °F 50% 29.70 in 10.0 mi West 24.2 mph 32.2 mph N/A   Mostly Cloudy
5:15 PM 50.0 °F - 32.0 °F 50% 29.71 in 10.0 mi West 20.7 mph 33.4 mph N/A   Mostly Cloudy
5:35 PM 48.2 °F - 30.2 °F 50% 29.72 in 10.0 mi West 21.9 mph 28.8 mph N/A   Scattered Clouds
5:55 PM 48.2 °F - 32.0 °F 54% 29.73 in 10.0 mi West 21.9 mph 28.8 mph N/A   Scattered Clouds
6:15 PM 46.4 °F 39.2 °F 32.0 °F 57% 29.74 in 10.0 mi West 18.4 mph 25.3 mph N/A   Partly Cloudy
6:35 PM 46.4 °F 39.5 °F 32.0 °F 57% 29.75 in 10.0 mi West 17.3 mph 26.5 mph N/A   Clear
6:55 PM 46.4 °F 39.5 °F 32.0 °F 57% 29.75 in 10.0 mi West 17.3 mph 27.6 mph N/A   Clear
7:15 PM 44.6 °F 38.4 °F 32.0 °F 61% 29.76 in 10.0 mi West 12.7 mph 21.9 mph N/A   Clear
7:35 PM 44.6 °F 38.8 °F 33.8 °F 66% 29.77 in 10.0 mi West 11.5 mph - N/A   Clear
7:55 PM 42.8 °F 37.0 °F 33.8 °F 70% 29.77 in 10.0 mi West 10.4 mph - N/A   Clear
8:15 PM 42.8 °F 36.6 °F 33.8 °F 70% 29.78 in 10.0 mi West 11.5 mph - N/A   Clear
8:35 PM 42.8 °F 36.6 °F 33.8 °F 70% 29.78 in 10.0 mi West 11.5 mph - N/A   Clear
8:55 PM 41.0 °F 35.2 °F 33.8 °F 76% 29.79 in 10.0 mi WSW 9.2 mph - N/A   Clear
9:15 PM 41.0 °F 35.8 °F 33.8 °F 76% 29.79 in 10.0 mi WSW 8.1 mph - N/A   Clear
9:35 PM 39.2 °F 33.0 °F 33.8 °F 81% 29.79 in 10.0 mi WSW 9.2 mph - N/A   Clear
10:15 PM 39.2 °F 33.6 °F 33.8 °F 81% 29.80 in 10.0 mi WSW 8.1 mph - N/A   Clear
10:35 PM 39.2 °F 32.5 °F 33.8 °F 81% 29.80 in 10.0 mi WSW 10.4 mph - N/A   Clear
10:55 PM 39.2 °F 33.0 °F 33.8 °F 81% 29.81 in 10.0 mi WSW 9.2 mph - N/A   Clear
11:15 PM 39.2 °F 33.0 °F 33.8 °F 81% 29.80 in 10.0 mi West 9.2 mph - N/A   Clear
11:35 PM 39.2 °F 33.0 °F 33.8 °F 81% 29.80 in 10.0 mi WSW 9.2 mph - N/A   Clear
11:55 PM 37.4 °F 30.8 °F 33.8 °F 87% 29.80 in 10.0 mi WSW 9.2 mph - N/A   Clear